This demonstration page uses our WeatherBlox Daily Observations layout. Learn more.

Hourly Observations for May 3, 2019

Temp ( °F °C ) Dew Point ( °F °C ) Humidity (%) Winds ( mph kmh ) Pressure ( in mb ) Visibility ( mi km ) Precip ( " mm )
12:54 am 00:54 Clear 52 11.1 38 3.3 59 59 Calm 30.09 1019 10 16.0934 0 0
1:54 am 01:54 Clear 45 7.2 37 2.8 74 74 Calm 30.09 1019 10 16.0934 0 0
2:54 am 02:54 Clear 43 6.1 38 3.3 82 82 N 7 11 30.06 1018 10 16.0934 0 0
3:54 am 03:54 Mostly Cloudy 46 7.8 37 2.8 71 71 NW 3 6 30.07 1018 10 16.0934 0 0
4:54 am 04:54 Mostly Cloudy 45 7.2 39 3.9 80 80 Calm 30.09 1019 10 16.0934 0 0
5:54 am 05:54 Cloudy 47 8.3 41 5 80 80 SE 6 9 30.06 1018 10 16.0934 0 0
6:54 am 06:54 Cloudy 51 10.6 43 6.1 74 74 ESE 6 9 30.04 1017 10 16.0934 0 0
7:54 am 07:54 Mostly Cloudy 52 11.1 45 7.2 77 77 SSE 9 15 30.01 1016 10 16.0934 0 0
8:54 am 08:54 Cloudy 53 11.7 44 6.7 72 72 NNW 8 13 30.06 1018 10 16.0934 0 0.0254
9:54 am 09:54 Cloudy 54 12.2 44 6.7 69 69 NNW 12 19 30.07 1018 10 16.0934 0 0
10:54 am 10:54 Cloudy 56 13.3 43 6.1 62 62 ENE 6 9 30.07 1018 10 16.0934 0 0
11:54 am 11:54 Mostly Cloudy 60 15.6 44 6.7 56 56 SSE 7 11 30.07 1018 10 16.0934 0 0
12:54 pm 12:54 Mostly Sunny 62 16.7 45 7.2 54 54 SSE 8 13 30.05 1018 10 16.0934 0 0
1:54 pm 13:54 Partly Cloudy 64 17.8 44 6.7 48 48 SSE 9 15 30.03 1017 10 16.0934 0 0
2:54 pm 14:54 Cloudy 63 17.2 45 7.2 52 52 SE 9 15 30.02 1017 10 16.0934 0 0
3:54 pm 15:54 Cloudy 64 17.8 46 7.8 52 52 S 8 13 29.99 1016 10 16.0934 0 0
4:54 pm 16:54 Mostly Sunny 67 19.4 46 7.8 47 47 SSE 8 13 29.96 1015 10 16.0934 0 0
5:54 pm 17:54 Mostly Cloudy 65 18.3 46 7.8 51 51 SE 9 15 29.96 1014 10 16.0934 0 0
6:54 pm 18:54 Sunny 65 18.3 46 7.8 51 51 SE 13 20 29.96 1014 10 16.0934 0 0
7:54 pm 19:54 Sunny 61 16.1 46 7.8 58 58 SSE 10 17 29.94 1014 10 16.0934 0 0
8:54 pm 20:54 Cloudy 60 15.6 47 8.3 62 62 SSE 12 19 29.96 1015 10 16.0934 0 0
9:54 pm 21:54 Cloudy 59 15 48 8.9 67 67 SSE 13 20 29.98 1015 10 16.0934 0 0
10:54 pm 22:54 Clear 54 12.2 47 8.3 77 77 S 7 11 30 1016 10 16.0934 0 0
11:54 pm 23:54 Clear 51 10.6 46 7.8 83 83 S 6 9 30 1016 10 16.0934 0 0

Powered by AerisWeather